Regional Weather Roundup
Issued by NWS Bismarck, ND

Home | Current Version | Previous Version | Text Only | Print | Product List | Glossary On
Versions: 1 2 3 4 5 6 7 8 9 10 11 12 13 14 15 16 17 18 19 20 21 22 23 24 25 26 27 28 29 30 31 32 33 34 35 36 37 38 39 40 41 42 43 44 45 46 47 48 49 50
000
ASUS43 KBIS 280702
RWRBIS

NWR BROADCAST TEXT
NATIONAL WEATHER SERVICE BISMARCK ND
200 AM CDT FRI JUL 28 2017

NOTE: "FAIR" INDICATES FEW OR NO CLOUDS BELOW 12,000 FEET WITH NO
SIGNIFICANT WEATHER AND/OR OBSTRUCTIONS TO VISIBILITY.


CITY           SKY/WX    TMP DP  RH WIND       PRES   REMARKS
WILLISTON      CLEAR     63  60  90 CALM      30.01S
MINOT          PTCLDY    69  60  73 SE9       30.03S
MINOT AFB      CLEAR     65  60  82 SE7       30.01F
BISMARCK       CLOUDY    68  58  70 SE8       30.05S
DICKINSON      CLOUDY    60  59  96 SE5       30.04S
GARRISON         N/A     64  62  93 SE6       30.04S
HETTINGER ARPT CLOUDY    60  54  80 SE5       30.07F
JAMESTOWN      CLEAR     62  58  86 CALM      30.07S
HAZEN          FAIR      63  61  94 SE5       30.06S
LINTON         FAIR     N/A N/A N/A SE9       30.07S
MANDAN         FAIR      70  57  64 SE10G17   30.06S
STANLEY        FAIR      63  61  94 CALM      30.06S
TIOGA          FAIR      61  61 100 CALM      30.05S
WATFORD CITY   FAIR      64  63  94 SE9       30.01F
$$

CITY           SKY/WX    TMP DP  RH WIND       PRES   REMARKS
GRAND FORKS    PTCLDY    63  61  93 CALM      30.05S
GRAND FORKS AF PTCLDY    58  56  94 CALM      30.06S
DEVILS LAKE    PTCLDY    68  60  75 SE6       30.08S
FARGO          CLEAR     64  61  90 CALM      30.06S
CAVALIER       FAIR      63  61  94 CALM      30.05S
GRAFTON        FAIR      61  59  94 CALM      30.07S
GWINNER        SUNNY     59  59 100 CALM      30.08R
LANGDON        FAIR      57  57 100 SE3       30.09F
ROLLA            N/A     55  55 100 CALM      30.08F
$$

CITY           SKY/WX    TMP DP  RH WIND       PRES   REMARKS
ABERDEEN       MOCLDY    67  62  84 SE5       30.07R
MOBRIDGE       LGT RAIN  73  62  68 SE10      30.03S
BUFFALO          N/A     61  55  81 E13       29.97F
RAPID CITY     CLEAR     60  54  80 W7        30.06S
GLASGOW        CLEAR     67  52  58 E15       29.95R
SIDNEY         MOCLDY    64  61  90 S5        30.00F
WOLF POINT     CLEAR     64  57  78 NE6       29.98S
GLENDIVE       CLOUDY    64  57  78 SE9       30.01S
MILES CITY     CLOUDY    69  54  58 NE9       29.96S
BAKER          MOCLDY    63  53  70 SE14      30.02F
$$

CITY           SKY/WX    TMP DP  RH WIND       PRES   REMARKS
BILLINGS       CLOUDY    72  53  51 S6        30.00F
GREAT FALLS    CLOUDY    68  41  37 SW10      29.99R
$$




USA.gov is the U.S. government's official web portal to all federal, state and local government web resources and services.